Back to catalog

KUIPER-00556

AliveCommunicationsLEO
NORAD 69621·PAYLOAD·🇺🇸 United States

Launched Jun 17, 2026 from Guiana Space Centre

Loading…

Next Passes (next 24 hours)

TLE

FreshSource: CelesTrak SupGP

Epoch: Sep 14, 2026, 22:10 UTC

1 69621C 26140AF  26257.92403935 -.00481590  00000+0 -61751-1 0  2570
2 69621  51.8975 331.3632 0007947 124.0626 159.6076 14.81257412    10

Track KUIPER-00556 in real time with AllMySat

Download on the App Store